Voltar ao catálogo

CZ-12 R/B

AtivoLEO
NORAD 62187·ROCKET BODY·🇨🇳 China

Lançado Nov 30, 2024 de Wenchang Space Launch Site

Loading…

Próximas Passagens (próximas 24 horas)

TLE

AtualizadoSource: Space-Track

Época: Sep 14, 2026, 12:53 UTC

1 62187U 24226C   26257.53733681 -.00000137  00000-0  37688-5 0  9997
2 62187  50.0004 228.7173 0061034  39.9603 320.5758 13.73634371 89756

Acompanhe CZ-12 R/B em tempo real com AllMySat

Download on the App Store